Weather Roundup
Issued by NWS

Home | Current Version | Previous Version | Text Only | Print | Product List | Glossary On
Versions: 1 2 3 4 5 6 7 8 9 10 11 12 13 14 15 16 17 18 19 20 21 22 23 24 25 26 27 28 29 30 31 32 33 34 35 36 37 38 39 40 41 42 43 44 45 46 47 48 49 50
000
NZUS93 KARX 261759
HRRWXR

CURRENT HOURLY OBSERVATIONS ACROSS
MUCH OF THE UPPER MISSISSIPPI VALLEY
NATIONAL WEATHER SERVICE LA CROSSE WI
1200 PM CST MON JAN 26 2015


...SOUTHEAST MINNESOTA...


CITY           SKY/WX    TMP DP  RH WIND       PRES   REMARKS
ROCHESTER      PTSUNNY   36  31  82 W16       29.71F WCI  26
ROCHESTER/MAYO MOCLDY    38  32  78 W13G21    29.71S WCI  30
WINONA         CLOUDY    30  27  86 SE6       29.74F WCI  24
AUSTIN         CLOUDY    37  34  87 NW16      29.73S WCI  28
ALBERT LEA     MOSUNNY   39  36  87 NW12G18   29.74S WCI  32
DODGE CENTER   CLOUDY    37  34  87 W13       29.71S WCI  29
PRESTON        CLOUDY    31  28  90 S10       29.72F WCI  22
OWATONNA       SUNNY     37  32  81 NW15      29.74S WCI  28
FARIBAULT      SUNNY     39  34  81 W12       29.74S WCI  32
$$

...ELSEWHERE IN MINNESOTA...


CITY           SKY/WX    TMP DP  RH WIND       PRES   REMARKS
MINNEAPOLIS    PTSUNNY   41  31  67 NW13      29.72S
INTNL FALLS    CLOUDY    30  25  81 NW14      29.66R WCI  19
DULUTH         LGT SNOW  25  21  85 SW5       29.64R FOG     WCI  19
RED WING       PTSUNNY   37  30  75 W6        29.71S WCI  33
REDWOOD FALLS  SUNNY     45  34  65 MISG      29.79R
MANKATO        SUNNY     41  34  75 NW17G23   29.76S
WORTHINGTON    SUNNY     43  36  75 NW16      29.82F
FAIRMONT       SUNNY     45  34  65 NW17G23   29.79R
$$

...SOUTHWEST WISCONSIN...


CITY           SKY/WX    TMP DP  RH WIND       PRES   REMARKS
LA CROSSE      CLOUDY    26  22  84 S13       29.76F FOG     WCI  15
PRAIRIE DU CHI CLOUDY    26  20  79 SE7       29.80F WCI  18
BOSCOBEL       CLOUDY    24  18  77 S5        29.82F WCI  18
LONE ROCK      CLOUDY    22  18  85 SE5       29.83F WCI  16
PLATTEVILLE    CLOUDY    21  19  90 SE14      29.80F WCI   8
FORT MC COY    CLOUDY    24  20  85 S6        29.79F WCI  16
VIROQUA        CLOUDY    22  20  93 S6        29.77R WCI  15
WIS DELLS      NOT AVBL
$$

...ELSEWHERE IN WISCONSIN...


CITY           SKY/WX    TMP DP  RH WIND       PRES   REMARKS
MILWAUKEE      CLOUDY    26  15  63 SW7       29.89F WCI  18
MADISON        LGT SNOW  21  17  84 S12       29.83F FOG     WCI   9
GREEN BAY      CLOUDY    25  17  72 S9        29.88S WCI  15
EAU CLAIRE     LGT SNOW  23  21  92 S8        29.72F FOG     WCI  14
BLACK RVR FLS  CLOUDY    24  22  93 SE3       29.76F FOG
MEDFORD        LGT SNOW  18  16  91 SE7       29.73S WCI   9
WAUSAU         LGT SNOW  18  14  84 SE12      29.76F FOG     WCI   5
WIS RAPIDS     LGT SNOW  20  16  84 SE7       29.80S FOG     WCI  11
MARSHFIELD     LGT SNOW  20  17  88 S12       29.75F FOG     WCI   8
RICE LAKE      LGT SNOW  23  21  91 SE7       29.72F WCI  15
$$

...NORTHEAST IOWA...


CITY           SKY/WX    TMP DP  RH WIND       PRES   REMARKS
DECORAH        CLOUDY    27  27 100 S9        29.75S WCI  17
MASON CITY     SUNNY     42  36  79 NW20      29.77R
CHARLES CITY   CLOUDY    36  34  93 W12       29.76S WCI  27
OELWEIN        CLOUDY    28  27  93 S15       29.77F WCI  17
$$

...ELSEWHERE IN IOWA...


CITY           SKY/WX    TMP DP  RH WIND       PRES   REMARKS
DES MOINES     MOSUNNY   46  34  62 NW21      29.83R
IOWA CITY      CLOUDY    30  27  88 S6        29.85R WCI  24
FORT DODGE     SUNNY     43  36  75 NW10G18   29.82S
$$

...NORTHERN ILLINOIS...


CITY           SKY/WX    TMP DP  RH WIND       PRES   REMARKS
CHICAGO-OHARE  CLOUDY    25  16  68 SW5       29.90F WCI  19
CHICAGO-MIDWAY CLOUDY    27  19  72 S6        29.91F WCI  20
MOLINE         CLOUDY    26  22  84 S7        29.86F WCI  18
ROCKFORD       FLURRIES  23  18  81 S9        29.89F WCI  13
PEORIA         LGT SNOW  25  21  85 S7        29.93F VSB 1   WCI  17
$$

NOTE: "FAIR" INDICATES FEW OR NO CLOUDS BELOW 12,000 FEET WITH NO
SIGNIFICANT WEATHER AND/OR OBSTRUCTIONS TO VISIBILITY. WIND
SPEEDS ARE IN MILES-PER-HOUR.



USA.gov is the U.S. government's official web portal to all federal, state and local government web resources and services.